Orbital Elements at Epoch 2459200.5 (2020-Dec-17.0) TDB
Reference: JPL 27 (heliocentric ecliptic J2000)
Element | Value | Uncertainty (1-sigma) | Units |
e | .122207177794297 | 3.7987e-08 | |
a | 2.628584020952568 | 1.1126e-08 | au |
q | 2.307352186156769 | 1.0106e-07 | au |
i | 1.0897440992139 | 3.9645e-06 | deg |
node | 219.3291138568929 | 0.00025723 | deg |
peri | 1.979397245763535 | 0.00025807 | deg |
M | 86.47179622052901 | 2.2018e-05 | deg |
tp | 2458826.601948643732 (2019-Dec-09.10194864) | 9.4862e-05 | TDB |
period | 1556.615039486142 4.26 | 9.8826e-06 2.706e-08 | d yr |
n | .2312710534512378 | 1.4683e-09 | deg/d |
Q | 2.949815855748367 | 1.2485e-08 | au |
|
| | Orbit Determination Parameters
Additional Information
|